Location: Recife
(8.0585°S, 34.8848°W)
Time: 10:17:47
(UTC-03:00)

Transit 2A Rocket - Pass Details

Date: 20 April 2026
Orbit: 587 x 895 km, 66.7° (Epoch: 14 May)

Event Time Altitude Azimuth Distance (km) Brightness Sun altitude
Rises 21:15:27 0° 173° (S) 3,429 - -59.5°
Reaches altitude 10° 21:18:41 10° 155° (SSE) 2,526 - -60.3°
Maximum altitude 21:22:41 19° 113° (ESE) 2,004 - -61.3°
Drops below altitude 10° 21:26:43 10° 70° (ENE) 2,559 - -62.3°
Sets 21:29:59 0° 52° (NE) 3,491 - -63.1°
